STARLINK-11176, 60060

Orbit data source: Space-Track

STARLINK-11176, 60060 is a payload satellite owned by SpaceX/Seattle (US) in LEO that was launched on Wed, 19 Jun 2024 UTC via an FALCON 9 launch vehicle from the Air Force Western Test Range (AFWTR). Payload-class satellites include a variety of spacecraft equipped with specific instruments for various scientific and technological missions. These include communications satellites like Starlink; space stations such as the ISS; scientific satellites like the Hubble; Earth observation satellites from companies like Planet Labs, Umbra, and HawkEye 360; GPS; miniature CubeSats for education and research; and military/defense satellites.

Loading next visibility...
Identifier
60060, 2024-113B
Orbit
LEO
Last TLE update
20 hours ago
Origin
Manufacturer
SpaceX/Seattle
Mission
Operational Commercial Communications
Bus & Motor
STARLINK V2M, Unknown motor
Mass
730 kg wet, ~700 kg dry
Launch date (UTC)
2024-06-19 (11 months ago)
Launch vehicle
FALCON 9
Launch site
Air Force Western Test Range (AFWTR)
Object type
Payload
Rocket body
Debris
Shape & HBR
Box + 2 Pan, 29 m
Radar Cross Section
36.964 m², Large (>1 m²)

Expand to show TLE details & history

TLE from 20 hours ago
0 STARLINK-11176
1 60060U 24113B   25131.02767262 -.00001747  00000-0 -95739-5 0  9996
2 60060  53.1597 243.3043 0001000  89.1104 271.0028 15.69701174 52229
Epoch: 2025-05-11T00:39Z
Definitive object data (Epoch: 2025-05-11T00:39:50.914Z)
Latitude
-0.00005°
Longitude
4.28112°
Altitude
360.655 km
Speed
7.694 km/s
True Right ascension
16h 13m 13s
True Declination
0° 00' 00"
Sunlit
Object was in full shadow at TLE epoch
Visualization TLE readout
Latitude
45.51649°
Longitude
130.76163°
Altitude
363.936 km
Speed
7.697 km/s
Apparent Right ascension
20h 54m 16s
Apparent Declination
7° 21' 15"
Sunlit
Object is in daylight
Visualization observer readout
Local Sidereal Time
05:20:40
Azimuth
300.957° NW
Elevation
-21.802°
Doppler factor
1
Orbital elements
Apogee altitude
360.687 km
Perigee altitude
359.339 km
Semi-major axis
6,738.15 km
Eccentricity
0.0001
Inclination
53.1597°
RAAN
243.3043°
Arg. of periapsis
89.1104°
True anomaly
270.99134°
Mean anomaly
271.0028°
Eccentric anomaly
270.99707°
Mean motion
3.92403 °/min
BSTAR
-0.0000095739
Orbital period
91.74 mins
Loading maneuver chart data...
Loading SW <> Apogee altitude chart data...
Loading historical data...
Loading historical data...
Loading historical data...
Loading historical data...
Loading historical data...
Loading historical data...
Loading historical data...

STARLINK-11176 Visibility forecast

Observer location: undefined°, undefined°

Span
Click to sort rows by Start time (UTC) header in descending order
Start Az.
Max El. time (UTC)
Max El. Az.
Max El.
End time (UTC)
End Az.
4 mins2025-05-12 16:54:33.981Z298.977° NW2025-05-12 16:56:33.981Z200.143° SSW40.716°2025-05-12 16:58:33.981Z144.258° SSE
|